weather.gov     
National Weather Service

Terminal Aerodrome Forecast
NWS Homepage
This page is being discontinued on March 12, 2014.
The same data is available at this site. Please update your bookmarks.
Thank you, and we apologize for the inconvenience.
Please send an email to SR-SRH.Webmaster@noaa.gov with any concerns.


Current Version
Previous Version:    01  02  03  04  05  06  07  08  09  10  11  12  13  14  
[Printable]
559
FTUS41 KGYX 201120
TAFPSM
TAF
KPSM 201120Z 2012/2112 VRB04KT P6SM SCT050
     FM201400 19011KT P6SM SCT050 BKN200
     FM210200 20006KT 5SM BR BKN012
     FM210600 20005KT 3SM BR BKN006=




559
FTUS41 KGYX 201120
TAFPSM
TAF
KPSM 201120Z 2012/2112 VRB04KT P6SM SCT050
     FM201400 19011KT P6SM SCT050 BKN200
     FM210200 20006KT 5SM BR BKN012
     FM210600 20005KT 3SM BR BKN006=


U.S. Dept. of Commerce
NOAA National Weather Service
1325 East West Highway
Silver Spring, MD 20910
E-mail: w-nws.webmaster@noaa.gov
Page last modified: May 16, 2007
NATIONAL WEATHER SERVICE: for Safety, for Work, for Fun - FOR LIFE